星链-32764 (STARLINK-32764)

导读

STARLINK-32764是美国SpaceX公司星链(Starlink)项目的卫星,该卫星于北京时间2025年1月10日发射升空,隶属于星链卫星互联网星座组网卫星,旨在为全球范围内用户提供高速低延迟的卫星互联网服务,进一步扩大星链星座的在轨规模与覆盖能力,增强星座整体服务稳定性与覆盖范围。

基本信息
目录编号:
62570
目录名称:
STARLINK-32764
国际标识:
2025-006S
轨道中心:
EARTH
卫星名称:
星链-32764
卫星全名:
星链-32764 (STARLINK-32764)
卫星状态:
在轨 (已飞行520 天)
发射日期:
2025-01-10 UTC
国别 :
美国 (US)
星等 :
--
轨道信息
数据来源 国际轨道数据
星历时间: 2026-06-13T21:56:40+0800
19小时前
查看轨道信息
半长轴: 6861.137km
偏心率: 0.0001482
轨道倾角: 42.992°
近地点辐角 103.936°
升交点赤经 111.399°
平近点角 256.166°
近地点: 481.983km
远地点: 484.017km
周期: 94.266分钟
每日圈数: 15.275965
详细信息
固有亮度:
5
最大亮度:
2.5
卫星平台:
Starlink V1.0
覆盖范围:
全球
运营商:
太空探索技术公司
运营商所在国:
美国
制造商(研发单位):
太空探索技术公司
制造商所在国:
美国
使用方式:
暂无
卫星简介
Starlink 计划是 SpaceX 推出的全球卫星互联网项目,通过发射低轨道卫星,为全球尤其是偏远地区提供高速、低延迟的互联网服务。自 2019 年起,Starlink 已部署数千颗卫星,旨在缩小全球数字鸿沟,推动互联网普及。该项目还为军事、航空等行业提供通信支持,带来广泛经济效益。
2D轨道图
3D轨道图
轨道高度分析图
轨道倾角分析图
轨道综合分析图
查看轨道综合分析图